GEFSCGP_850_meantemp_138.txt.gz
Temperature
14 13 13 13 14 14 15 15 15 15 16 16 15 15 16 17 17 17 18 19 20 20 21 21 20 20 20 19 18 18 17 16 15 14 13 12 12 12 11 11 11 10 10 10
12 12 14 14 14 15 15 14 15 15 16 16 15 15 15 15 16 18 18 19 19 20 20 21 20 20 20 19 19 18 17 16 15 15 14 13 13 12 11 11 10 10 10 10
12 13 14 15 14 14 14 14 14 15 15 15 15 14 15 15 17 18 18 19 19 20 20 20 20 20 19 19 19 18 17 17 16 15 14 13 12 11 11 11 11 10 10 10
12 14 15 14 14 14 14 15 15 15 14 13 14 13 13 14 15 16 17 18 19 19 20 20 20 20 19 19 18 18 17 17 16 15 14 13 12 12 12 11 11 10 10 10
12 13 14 14 14 14 14 15 15 15 14 13 13 13 13 14 15 15 16 18 19 19 19 19 19 19 19 18 18 17 17 16 15 14 14 13 13 12 12 11 11 10 10 10
13 14 14 14 15 15 15 14 13 12 12 12 12 12 12 13 15 15 15 17 18 19 19 19 19 18 18 18 17 17 16 16 15 14 14 13 13 12 11 11 11 10 10 10
12 13 14 14 14 14 14 13 12 12 11 11 12 12 13 14 15 15 15 17 18 19 19 19 18 18 18 17 17 16 16 15 14 14 13 13 12 12 12 11 11 10 10 10
11 12 13 13 14 13 13 13 12 12 11 11 12 12 13 14 15 16 17 18 18 18 18 18 18 18 17 17 16 16 15 15 14 13 13 12 12 12 11 11 11 10 10 10
11 12 13 13 14 14 12 13 13 12 11 11 11 12 13 14 14 14 15 16 17 18 18 18 18 17 17 17 16 15 15 14 14 13 13 12 12 11 11 11 10 10 10 10
11 11 12 13 13 13 13 12 11 11 11 11 11 12 13 15 14 14 13 15 17 18 18 18 17 17 17 16 16 15 14 14 13 13 12 12 11 11 11 10 10 10 10 10
11 11 11 12 12 12 12 12 12 11 10 11 11 12 13 14 15 14 13 16 17 18 18 18 17 17 16 16 15 15 14 13 13 12 12 11 11 11 10 10 10 10 9 9
11 10 10 11 12 13 12 12 12 12 10 10 10 12 14 13 14 14 14 16 17 18 18 18 17 17 16 16 16 15 14 14 13 12 12 11 11 10 10 10 10 9 9 9
11 10 10 10 11 11 12 11 12 12 10 10 10 12 14 13 13 14 15 16 17 17 17 17 17 17 16 16 16 15 14 14 13 12 11 11 10 10 10 10 9 9 9 9
12 9 10 11 11 11 11 11 11 11 11 10 10 12 14 14 13 13 15 16 17 17 17 17 17 17 16 16 15 15 14 14 13 12 11 11 10 10 9 9 9 9 8 8
11 10 10 11 11 11 11 11 11 12 12 11 12 12 13 14 13 14 15 16 16 16 16 17 16 16 16 16 15 15 14 13 13 12 11 11 10 10 9 9 8 8 8 8
9 9 10 10 11 11 11 12 12 12 12 12 12 12 13 14 14 14 15 15 15 16 16 16 16 16 16 15 15 14 14 13 12 12 11 10 10 9 9 8 8 8 8 7
8 8 9 10 10 11 10 12 12 12 12 12 12 13 13 13 12 14 15 15 15 16 16 16 16 16 16 15 15 14 14 13 12 11 11 10 9 9 8 8 8 7 7 7
8 8 8 8 9 9 11 12 12 12 12 12 12 12 13 13 15 16 17 17 16 16 16 16 16 16 15 15 14 14 13 12 12 11 10 10 9 8 8 7 7 7 7 6
8 8 7 7 9 9 10 11 11 12 12 12 12 12 12 14 13 14 16 16 17 17 16 16 16 15 15 14 14 13 13 12 11 11 10 9 9 8 7 7 7 6 6 6
8 8 7 7 8 9 11 11 12 12 11 12 12 12 12 11 11 12 15 16 16 16 16 15 15 15 14 14 13 13 12 12 11 10 10 9 8 7 7 7 6 6 5 5
7 7 7 7 8 9 10 11 11 11 12 12 13 13 12 11 13 15 15 15 15 15 15 15 14 14 14 13 13 12 12 11 10 10 9 8 8 7 6 6 5 5 4 4
8 7 7 7 7 9 10 10 12 12 14 14 14 14 13 14 14 15 15 15 15 14 14 14 14 13 13 12 12 11 11 10 10 9 8 8 7 6 6 5 5 4 4 3
8 8 8 9 10 10 11 12 14 15 14 15 15 15 15 14 14 14 14 14 14 14 14 13 13 13 12 12 11 11 10 10 9 8 8 7 6 6 5 5 4 3 3 3
7 7 7 8 9 10 11 13 14 15 15 16 16 16 15 15 14 14 14 13 13 13 13 12 12 12 11 11 10 10 9 9 8 8 7 6 6 5 5 4 3 3 3 2
6 6 7 8 9 9 11 13 14 14 15 15 15 15 15 15 14 14 13 13 13 12 12 12 11 11 10 10 9 9 9 8 7 7 6 5 5 4 4 3 3 2 2 2
6 7 8 9 9 9 10 14 14 14 14 14 15 14 14 14 14 14 13 13 12 12 11 11 10 10 9 9 8 8 8 7 7 6 5 5 4 4 3 3 2 2 1 1

GEFSCGP_850_meantemp_144.txt.gz
Temperature
12 11 11 12 12 13 13 13 13 14 14 14 13 13 14 15 15 15 16 17 18 19 20 20 20 20 19 19 18 18 17 17 16 15 14 13 13 13 12 12 11 11 11 10
10 11 12 13 13 13 13 13 13 13 14 14 13 13 13 13 14 15 16 17 19 19 20 20 20 20 19 19 19 18 18 17 17 16 16 15 14 13 13 12 11 11 11 10
11 12 13 13 12 12 12 12 13 13 14 13 13 13 13 13 14 15 16 17 18 19 19 20 20 20 20 19 19 19 18 18 17 16 15 14 13 12 12 12 11 11 11 10
11 12 13 12 12 12 12 13 13 13 13 12 13 12 12 13 13 13 15 16 18 19 19 19 20 20 20 19 19 19 18 18 17 16 15 15 14 13 13 13 12 11 11 10
11 11 12 12 12 12 12 13 13 13 12 11 11 11 12 12 13 13 14 16 18 19 19 19 19 19 19 19 19 19 18 17 17 16 15 15 14 14 14 13 12 11 11 10
11 11 12 12 13 13 12 12 11 10 10 11 11 11 11 11 13 14 14 16 18 19 19 19 19 19 19 19 19 18 18 17 17 16 15 15 14 14 13 12 12 11 11 10
10 11 11 12 12 12 12 11 11 11 10 10 10 10 12 12 12 13 14 16 18 18 18 19 19 19 19 19 18 18 17 17 16 16 15 15 14 14 13 13 12 11 11 11
9 10 11 11 12 11 11 12 11 11 10 10 10 10 12 12 13 14 15 16 17 18 18 18 19 19 18 18 18 18 17 17 16 15 15 15 14 13 13 12 12 11 11 11
9 10 11 11 11 12 11 11 11 11 10 10 9 9 10 12 12 12 13 14 16 17 18 18 18 18 18 18 18 17 17 16 16 15 15 14 14 13 13 12 11 11 11 11
9 9 10 10 11 11 11 11 10 10 10 11 10 10 11 13 13 13 12 13 16 17 18 18 18 18 17 17 17 17 16 16 16 15 15 14 13 13 12 12 11 11 10 10
9 9 9 10 11 10 10 10 10 10 9 10 10 11 11 13 14 13 13 15 16 17 18 18 18 17 17 17 17 16 16 16 15 15 14 14 13 12 12 11 11 10 10 10
8 8 8 9 10 11 10 10 10 10 9 8 9 11 13 12 12 13 13 15 16 17 17 17 17 17 17 17 16 16 16 15 15 14 14 13 13 12 11 11 10 10 10 9
8 8 8 8 9 9 10 9 10 10 9 8 9 11 12 11 11 12 13 15 16 16 17 17 17 17 17 16 16 16 16 15 15 14 14 13 12 12 11 11 10 10 9 9
8 7 8 9 9 9 9 9 9 9 10 9 9 11 13 12 12 12 13 14 15 16 16 17 17 17 16 16 16 16 15 15 14 14 13 13 12 12 11 10 10 9 9 9
6 7 7 8 9 9 9 10 9 10 10 10 11 11 12 12 12 13 14 14 14 15 16 16 17 16 16 16 16 16 15 15 14 14 13 13 12 11 11 10 9 9 9 8
5 6 7 8 8 9 9 10 10 10 11 11 11 11 12 12 13 13 13 14 14 15 16 16 16 16 16 16 16 16 15 15 14 14 13 13 12 11 10 10 9 9 8 8
4 5 6 7 8 8 8 9 10 10 10 11 11 12 11 11 11 12 14 14 15 16 16 16 16 17 16 16 16 15 15 15 14 14 13 12 12 11 10 10 9 8 8 8
4 5 5 6 7 7 9 10 11 11 11 11 11 11 11 12 13 15 16 15 16 16 16 16 16 16 16 16 15 15 14 14 14 13 13 12 11 10 10 9 8 8 8 7
5 5 5 5 6 7 8 9 10 10 10 11 11 11 11 12 12 13 15 15 16 16 16 16 16 16 16 15 15 15 14 14 13 13 12 12 11 10 9 9 8 8 7 7
5 5 5 5 6 7 9 9 10 10 10 10 11 11 10 10 10 12 15 15 15 16 16 16 15 15 15 15 15 14 14 14 13 13 12 11 10 10 9 8 8 7 7 6
4 4 5 5 6 7 9 9 9 10 10 11 11 11 10 10 13 14 15 15 15 15 15 15 15 15 15 15 14 14 14 13 13 12 11 10 10 9 8 8 7 7 6 6
5 5 5 5 6 7 8 8 9 10 12 12 12 12 11 12 13 14 14 14 14 14 14 14 15 14 14 14 14 14 13 13 12 11 10 10 9 9 8 7 7 6 6 5
5 6 6 6 8 8 8 9 11 12 12 12 13 13 13 12 13 13 13 14 14 14 14 14 14 14 14 13 13 13 13 12 11 10 10 9 9 8 7 7 6 6 5 5
4 5 5 5 6 7 9 10 11 11 12 13 13 13 13 12 13 13 13 13 13 13 13 14 14 13 13 13 12 12 12 11 10 10 9 9 8 8 7 6 6 5 5 4
4 4 4 5 6 7 8 10 11 11 11 12 12 13 13 13 13 13 13 13 13 13 13 13 13 13 13 12 11 11 11 10 10 9 9 8 8 7 6 5 5 4 4 3
3 4 5 6 6 7 8 10 10 10 11 12 12 12 12 12 13 13 13 13 13 13 13 12 12 12 12 11 11 10 10 9 9 9 8 7 7 6 5 5 4 3 3 3

GEFSCGP_850_meantemp_150.txt.gz
Temperature
12 13 13 15 16 17 17 17 18 18 18 18 18 19 20 20 19 19 20 20 19 19 19 19 19 19 19 18 18 17 17 16 15 15 14 14 13 13 13 13 12 12 11 11
11 12 15 16 16 16 16 16 17 17 17 17 18 19 20 20 19 19 19 20 19 19 19 19 19 19 19 19 18 18 17 17 16 16 15 15 14 14 13 13 12 12 11 11
12 14 15 14 14 14 15 16 16 17 16 16 17 18 19 20 19 18 18 19 19 19 19 19 19 19 19 19 19 18 18 17 17 16 15 14 13 13 12 12 13 12 12 11
12 13 13 13 14 14 14 16 16 16 16 16 16 17 19 20 19 19 19 19 19 19 18 19 19 19 19 19 19 18 18 17 17 16 15 14 14 14 14 14 13 13 12 11
12 13 13 13 14 14 14 15 15 15 15 15 16 16 19 19 19 20 20 19 19 18 18 18 18 19 19 19 19 19 18 17 17 16 15 15 14 14 13 13 13 12 12 11
12 12 13 14 14 14 14 14 13 14 14 14 16 16 18 19 20 20 20 20 19 18 18 18 18 18 18 18 18 18 18 18 17 16 15 15 14 14 13 13 13 12 12 12
10 11 12 13 13 13 13 13 12 12 12 14 16 16 18 20 20 20 20 20 19 18 17 17 18 18 18 18 18 18 18 17 17 16 16 15 15 14 13 13 13 12 12 12
10 11 11 12 13 13 13 13 13 14 15 16 15 15 19 19 19 18 18 18 17 17 17 17 18 18 18 18 18 18 18 17 17 17 16 15 15 14 13 13 13 12 12 12
10 11 12 12 13 13 13 13 14 14 14 15 15 16 18 18 17 17 17 16 16 16 16 17 17 17 18 18 18 18 18 17 17 17 16 15 14 14 13 13 12 12 12 12
10 10 11 11 11 12 13 13 13 12 13 14 16 17 18 18 18 18 18 17 17 16 16 16 17 17 17 17 17 17 17 17 17 16 16 15 14 14 13 13 12 12 12 11
9 9 9 10 11 11 12 12 12 13 14 15 16 17 18 19 19 19 18 18 17 16 16 16 16 17 17 17 17 17 17 16 16 16 15 15 14 13 13 12 12 12 11 11
7 8 9 10 11 12 13 12 12 12 13 14 16 18 18 17 18 18 18 17 16 15 15 16 16 16 16 16 16 16 16 16 16 15 15 14 14 13 13 12 12 11 11 10
6 7 8 9 9 9 10 11 12 13 13 14 15 17 17 16 16 16 16 16 15 15 15 15 16 16 16 16 16 16 16 16 15 15 15 14 14 13 13 12 12 11 11 10
6 6 8 9 10 9 9 10 11 12 12 13 15 17 17 17 16 16 15 15 15 14 14 15 15 16 16 16 16 16 15 15 15 15 14 14 14 13 13 12 11 11 10 10
5 6 7 8 9 9 9 10 11 11 13 14 15 16 17 18 17 17 16 15 14 14 14 14 15 15 16 16 15 15 15 15 15 14 14 14 13 13 12 12 11 11 10 10
5 5 6 7 8 9 9 10 11 11 13 14 14 15 17 17 16 16 15 14 14 14 14 14 15 15 15 16 15 15 15 15 14 14 14 14 13 13 12 12 11 10 10 9
4 4 5 7 8 8 9 11 11 12 13 14 14 15 16 15 15 16 15 15 15 15 14 14 15 15 16 16 15 15 15 15 14 14 14 13 13 12 12 11 11 10 10 9
4 4 5 6 7 7 11 12 13 12 13 14 14 15 15 16 15 15 15 15 15 15 15 15 15 15 15 15 15 15 15 14 14 14 13 13 13 12 12 11 10 10 9 9
5 5 5 6 7 9 11 11 11 11 12 13 13 14 14 14 14 15 14 15 15 15 15 15 15 15 15 15 15 15 14 14 14 14 13 13 12 12 11 11 10 9 9 8
5 5 5 5 6 8 11 11 11 11 11 13 13 13 13 13 13 15 15 14 14 14 15 15 15 15 15 15 15 14 14 14 14 14 13 13 12 11 11 10 10 9 8 8
4 4 4 5 6 9 10 9 10 10 11 12 12 12 13 12 13 14 14 14 14 14 14 15 15 15 15 15 14 14 14 14 14 13 13 12 11 11 10 10 9 8 8 7
5 5 5 5 6 8 8 8 9 10 10 10 11 11 11 12 12 12 12 13 13 13 14 14 14 14 14 14 14 14 14 14 13 13 12 11 11 10 10 9 8 8 7 7
5 6 6 6 8 9 8 8 8 9 9 9 10 10 10 10 11 11 11 11 12 13 13 13 14 14 14 14 14 14 14 13 13 12 12 11 10 10 9 8 8 7 7 6
6 6 6 6 7 8 8 8 8 8 8 9 9 9 9 10 10 10 10 11 11 12 12 13 13 13 13 13 13 13 13 13 12 11 11 10 10 9 8 8 7 7 7 6
6 5 5 6 7 7 8 8 8 8 8 8 9 9 9 9 9 10 10 10 11 11 12 12 12 13 13 13 13 12 12 12 11 11 10 9 9 8 8 7 7 7 6 6
5 5 6 6 7 7 8 7 7 7 7 8 8 8 8 8 9 9 9 10 10 11 11 11 12 12 12 12 12 12 11 11 11 10 9 9 8 8 7 7 6 5 5 5

GEFSCGP_850_meantemp_156.txt.gz
Temperature
11 10 11 12 13 14 16 16 16 18 19 19 18 18 19 20 20 20 22 22 22 22 21 21 20 20 19 18 17 17 16 15 14 14 13 13 13 13 13 13 12 12 12 12
10 10 12 14 14 14 15 15 15 17 18 18 18 18 19 20 20 20 21 22 22 22 22 21 21 20 19 18 18 17 16 16 15 15 15 15 14 14 13 13 13 12 12 12
10 11 13 13 14 13 14 14 15 16 17 17 17 17 18 19 20 21 21 21 22 22 21 21 21 20 19 19 18 17 17 16 16 15 14 13 13 13 12 13 13 13 12 12
10 12 13 13 13 13 13 15 15 15 15 14 15 14 17 18 18 19 20 21 21 21 21 21 21 20 20 19 18 17 17 16 16 15 14 14 14 14 14 14 14 13 13 12
10 12 12 12 13 14 14 15 15 15 14 13 15 14 16 18 18 19 19 20 21 21 21 21 20 20 20 19 18 18 17 16 16 15 15 15 14 15 14 13 13 13 13 12
10 12 12 13 14 14 13 13 13 13 12 12 13 14 15 17 18 19 19 20 21 21 20 20 20 20 20 19 18 18 17 16 15 15 15 15 15 14 13 13 13 13 12 12
9 10 11 12 12 13 12 11 10 10 10 11 14 14 15 18 19 20 20 20 21 21 20 20 20 20 19 19 18 18 17 16 15 15 15 15 14 14 14 14 13 13 12 12
8 9 11 12 12 11 11 11 11 11 11 13 14 14 16 18 19 20 21 21 21 20 20 20 20 19 19 19 18 18 17 16 16 15 15 14 14 14 13 13 13 13 13 13
8 9 11 12 12 12 11 11 12 12 12 13 14 16 17 18 18 18 19 19 19 19 19 19 19 19 19 18 18 18 17 17 16 16 15 14 14 14 13 13 13 12 12 12
7 8 9 11 11 11 12 11 11 10 11 11 14 15 16 16 17 17 17 17 19 19 19 18 18 18 18 18 18 17 17 17 16 16 15 14 14 14 13 13 13 12 12 12
6 7 8 9 9 10 11 11 10 10 11 12 13 15 18 17 18 17 17 18 18 18 18 18 18 17 18 17 17 17 16 16 16 15 15 14 14 13 13 13 13 12 12 12
6 6 7 8 10 10 10 11 10 10 10 12 13 15 18 17 17 17 17 18 18 18 18 17 17 17 17 17 16 16 16 16 16 15 15 14 14 13 13 13 12 12 12 12
5 5 6 7 8 8 8 9 10 10 11 11 12 14 16 16 17 17 17 18 18 17 17 17 16 16 16 16 16 15 15 15 15 15 14 14 14 13 13 13 12 12 12 11
6 5 5 6 7 7 7 8 9 9 9 10 12 14 15 15 16 16 17 17 17 17 16 16 16 15 15 15 15 15 15 15 15 14 14 14 14 14 13 13 12 12 12 11
5 4 5 6 7 8 8 8 9 9 9 10 12 13 15 15 15 15 16 17 16 16 16 15 15 15 15 14 14 14 14 14 14 14 14 14 14 13 13 13 12 12 11 11
4 4 5 6 7 7 8 9 9 9 10 10 11 13 15 15 15 15 16 16 16 15 15 15 15 14 14 14 14 14 14 14 14 14 14 14 13 13 13 13 12 12 11 11
3 4 4 5 6 7 7 9 9 10 11 11 11 12 14 14 15 15 16 16 15 15 15 15 14 14 14 14 14 14 14 14 14 14 14 13 13 13 13 12 12 11 11 11
3 3 3 4 5 5 8 10 10 10 11 11 11 12 13 14 14 15 15 15 15 15 14 14 14 14 14 14 14 14 14 14 14 13 13 13 13 13 12 12 12 11 11 11
4 4 3 4 5 6 9 10 10 10 10 11 11 12 12 14 14 14 14 14 14 14 14 14 14 14 14 14 14 14 13 13 13 13 13 13 13 12 12 12 11 11 11 10
5 4 3 3 4 6 8 9 10 10 9 10 10 11 11 12 11 12 14 14 14 14 14 14 14 14 14 14 13 13 13 13 13 13 13 13 13 13 12 12 11 11 10 10
3 3 3 3 4 6 8 9 9 8 8 9 10 10 11 11 11 12 13 13 13 13 13 13 13 14 13 13 13 13 13 13 13 13 13 13 12 12 12 11 11 10 10 9
4 3 3 4 4 5 7 8 7 7 8 8 9 9 10 10 11 11 12 12 12 13 13 13 13 13 13 13 13 13 13 13 13 13 13 12 12 12 11 11 10 10 9 9
4 4 4 4 5 7 7 7 7 8 8 8 8 8 9 9 9 10 10 11 11 12 12 12 12 12 12 12 12 12 13 12 12 12 12 12 12 11 11 10 10 9 9 8
5 6 5 5 6 7 8 8 7 7 7 7 8 8 8 8 8 9 9 9 10 11 11 11 11 11 12 12 12 12 12 12 12 12 12 12 11 10 10 10 9 9 9 8
5 5 5 5 6 6 7 8 7 7 7 7 7 7 7 7 8 8 8 8 9 9 10 10 10 11 11 11 11 11 12 12 12 12 11 11 10 10 9 9 9 9 9 8
4 4 4 5 6 6 7 8 7 7 7 7 7 7 7 7 7 7 8 8 8 8 9 9 10 10 10 10 10 10 11 11 12 11 11 10 10 9 9 8 8 7 7 7